Location: Unspecified
(54.1780°N, 0.0000°E)
Time: 18:57:12
(UTC+00:00)

Altair - Pass Details

Date: 25 June 2019
Orbit: 1501 x 1683 km, 47.2° (Epoch: 20 July)

Event Time Altitude Azimuth Distance (km) Brightness Sun altitude
Rises 19:15:02 0° 225° (SW) 4,687 10.3 8.9°
Reaches altitude 10° 19:18:14 10° 218° (SW) 3,728 9.7 8.5°
Maximum altitude 19:26:52 42° 152° (SSE) 2,146 8.0 7.4°
Drops below altitude 10° 19:35:50 10° 87° (E) 3,870 9.2 6.3°
Sets 19:39:13 0° 80° (E) 4,881 9.7 5.9°
